Погода в Марксе

Россия / Саратовская область     51°42′47″N   46°44′24″E
темп.,
°C
ветер,
м/с
пор.,
м/с
влажн.,
%
обл.,
%
осадки,
мм/ч
давл.,
гПа
погр.,
м
12 августа, пт
пт1201:00+21св4107338 0.1 1020245
04:00+19св37825 0.1 1021179
07:00+20св48695 0.0 1022258
10:00+26всв56480 0.0 1023628
13:00+30всв54350 0.0 10221247
16:00+32всв43300 0.0 10212013
19:00+29вюв45360 0.0 1020516
22:00+23в47510 0.0 1021119
13 августа, сб
сб1301:00+21в36540 0.0 102198
04:00+19всв33581 0.0 102154
07:00+20всв24540 0.0 1022124
10:00+27в33360 0.0 1021622
13:00+30в32320 0.0 10201706
16:00+32всв34280 0.0 10182693
19:00+30всв463257 0.0 1018653
22:00+23в37480 0.0 1018103
14 августа, вс
вс1401:00+21всв35540 0.0 101885
04:00+19всв36560 0.0 101897
07:00+19св37580 0.0 1019186
10:00+26в56390 0.0 1019753
13:00+30в54300 0.0 10182056
16:00+31всв55270 0.0 10172463
19:00+29св56350 0.0 1016846
22:00+23св410500 0.0 1017194
15 августа, пн
пн1501:00+22всв513490 0.0 1018322
04:00+19всв512430 0.0 1018265
07:00+19всв411470 0.0 1020346
10:00+25в68340 0.0 1020888
13:00+29всв67280 0.0 10191645
16:00+30всв78280 0.0 10181847
19:00+28всв68310 0.0 10181429
22:00+21св410490 0.0 1019184
16 августа, вт
вт1601:00+19св410540 0.0 1020182
04:00+18св411570 0.0 1020216
07:00+19св513520 0.0 1020371
10:00+26всв810340 0.0 1020812
13:00+30всв77271 0.0 10201514
16:00+31всв66245 0.0 10191971
19:00+29всв682680 0.0 1019717
22:00+23св5143212 0.0 1020303